Location: Bay Harbour
(38.2612°N, 75.2555°W)
Time: 17:12:50
(UTC+00:00)

SL-08 R/B - Pass Details

Date: 29 October 2020
Orbit: 946 x 994 km, 83.0° (Epoch: 23 November)

Event Time Altitude Azimuth Distance (km) Brightness Sun altitude
Rises 23:16:45 0° 352° (N) 3,647 7.5 -14.7°
Reaches altitude 10° 23:19:16 10° 353° (N) 2,692 6.8 -15.2°
Maximum altitude 23:25:25 88° 266° (W) 955 4.4 -16.4°
Drops below altitude 10° 23:31:30 10° 176° (S) 2,657 6.8 -17.6°
Sets 23:33:58 0° 176° (S) 3,597 7.5 -18.1°
